Location: Kuffner-Sternwarte
(48.2130°N, 16.2960°E)
Time: 05:05:13
(UTC+01:00)

COROT - Pass Details

Date: 27 May 2017
Orbit: 602 x 887 km, 90.0° (Epoch: 24 November)

Event Time Altitude Azimuth Distance (km) Brightness Sun altitude
Rises 21:45:41 0° 358° (N) 3,124 10.0 -8.8°
Reaches altitude 10° 21:48:05 10° 355° (N) 2,155 9.2 -9.1°
Maximum altitude 21:52:43 58° 277° (W) 764 6.3 -9.6°
Drops below altitude 10° 21:57:01 10° 198° (SSW) 2,001 7.9 -10.1°
Sets 21:59:10 0° 195° (SSW) 2,879 8.6 -10.3°
